Overview Statistics Trail Chart Weather Telemetry Raw packets
 

This is the latest recevied weather packets stored in our database for station/object DK6MR-13. If no packets are shown the sender has not sent any weather packets the latest 10 day(s).

<< 2 3 4 5 6 7 8 >>
Time Temp. Humidity Pressure Rain* Wind** Luminosity Snow
1778005506 13.33° C 91% 1005.1 hPa 6.1 mm - - -
1778004605 13.33° C 91% 1005.1 hPa 6.6 mm - - -
1778003704 13.33° C 91% 1005.1 hPa 6.1 mm - - -
1778002800 13.33° C 91% 1005.1 hPa 4.32 mm - - -
1778001899 13.89° C 91% 1005.1 hPa 3.56 mm - - -
1778000998 13.89° C 90% 1005.1 hPa 4.83 mm - - -
1778000097 14.44° C 90% 1005.1 hPa 3.05 mm - - -
1777999196 14.44° C 89% 1005.1 hPa 4.83 mm - - -
1777998295 14.44° C 89% 1005.1 hPa 1.78 mm - - -
1777997393 15° C 89% 1004.7 hPa 3.05 mm - - -
1777996492 15° C 88% 1005.1 hPa 3.05 mm - - -
1777995591 15° C 88% 1005.1 hPa 4.83 mm - - -
1777994690 15.56° C 86% 1005.1 hPa 1.27 mm - - -
1777993789 16.11° C 83% 1005.4 hPa 1.27 mm - - -
1777992888 16.11° C 80% 1005.1 hPa 0 mm - - -
1777991987 16.67° C 79% 1005.4 hPa 0 mm - - -
1777991086 16.67° C 79% 1005.1 hPa 0 mm - - -
1777990185 16.67° C 76% 1005.4 hPa 0 mm - - -
1777989284 16.67° C 74% 1005.4 hPa 0 mm - - -
1777988383 17.78° C 71% 1005.7 hPa 0 mm - - -
1777987481 18.33° C 68% 1005.7 hPa 0 mm - - -
1777986580 18.89° C 64% 1005.7 hPa 0 mm - - -
1777985679 18.33° C 67% 1005.7 hPa 0 mm - - -
1777984779 17.78° C 71% 1006.4 hPa 0 mm - - -
1777983878 17.78° C 71% 1006.1 hPa 0 mm - - -

* Rain latest hour (hover to see other rain measurements)
** Current wind speed in m/s (hover to see current wind gust speed)